Briefing drone pour Meylan

Rechercher une autre localisation

Conditions de vol :


Nous sommes le : Samedi 15 mai 2021
Il est 01:39 UTC (03:39 LT)

Lever de soleil : 03:40 UTC (05:40 LT)
Coucher de soleil : 19:26 UTC (21:26 LT)

Météo

L'essentiel des conditions de vol

VIGILANCE MÉTÉO FRANCE - Isère (38)
Vigilance Jaune : Avalanches
CARTE TEMSI
CARTES DES FRONTS
METAR de LFLS
LFLS 150130Z AUTO 06003KT 020V080 CAVOK 07/04 Q1013

Date d'émission: 15/05/2021
Heure d'émission: 01:30 UTC
Vent: 060° (variable du 020° au 080°) pour 3 KT (6 km/h)
Visibilité horizontale: > 10 km
Plafond : Plafond et visibilité OK (CAVOK)
Température: 7 °C
Point de rosée: 4 °C
Humidité: 81%
Pression (QNH): 1013 hPa
TAF de LFLS
LFLS 141908Z 1419/1515 CNL

Conditions prévues :

Heure d'émission : Bulletin éffectué le 14 à 19:00 UTC
Prévision : Valide du 14 a 19:00 UTC au 15 a 15:00 UTC
Nuages : à 0ft (0 m)
WEBCAM POUR MEYLAN

Réglementation

Voler en sécurité

CARTES AERONAUTIQUE 1/500.000
CARTES VAC (LFLS)
SUP AIP




Chargement des AIP...
NOTAM (MEYLAN + Terrain à proximité / FIR )




Chargement des NOTAMS...
CONTACT PREFECTURE 38


Avertissement : Les données mises à disposition sont indicatives. Oxygène Drone ne pourra être tenu responsable de dégâts causés aux biens et aux personnes.